Location: Bremen
(53.0758°N, 8.8072°E)
Time: 07:42:47
(UTC+01:00)

ISS - Visible Passes

Search period start: 30 November 2022 00:00
Search period end: 10 December 2022 00:00
Orbit: 411 x 420 km, 51.6° (Epoch: 29 November)

Date Brightness Start Highest point End Pass type
(mag) Time Alt. Az. Time Alt. Az. Time Alt. Az.
30 Nov -3.6 17:02:05 10° W 17:05:25 70° S 17:08:43 10° E visible
30 Nov -3.0 18:38:45 10° W 18:41:58 46° SSW 18:41:58 46° SSW visible
01 Dec -3.3 17:50:01 10° W 17:53:18 56° SSW 17:55:20 20° ESE visible
01 Dec -0.9 19:27:00 10° W 19:28:14 17° WSW 19:28:14 17° WSW visible
02 Dec -3.4 17:01:15 10° W 17:04:34 65° S 17:07:52 10° ESE visible
02 Dec -2.1 18:38:03 10° W 18:40:59 29° SSW 18:41:39 26° S visible
03 Dec -2.5 17:49:11 10° W 17:52:18 38° SSW 17:55:12 11° SE visible
03 Dec -0.6 19:27:16 10° WSW 19:28:06 11° SW 19:28:06 11° SW visible
04 Dec -2.8 17:00:20 10° W 17:03:34 48° SSW 17:06:47 10° ESE visible
04 Dec -1.0 18:37:35 10° WSW 18:39:45 16° SW 18:41:49 10° S visible
05 Dec -1.4 17:48:24 10° W 17:51:05 22° SSW 17:53:45 10° SSE visible
06 Dec -1.8 16:59:23 10° W 17:02:21 30° SSW 17:05:19 10° SE visible
07 Dec -0.5 17:48:13 10° WSW 17:49:37 12° SW 17:51:00 10° SSW visible
08 Dec -0.7 16:58:37 10° WSW 17:00:54 17° SW 17:03:12 10° S visible
